Location: Unspecified
(35.3830°S, 0.0000°E)
Time: 23:45:34
(UTC+00:00)

Hubble Space Telescope - Visible Passes

Search period start: 19 May 2019 00:00
Search period end: 29 May 2019 00:00
Orbit: 536 x 540 km, 28.5° (Epoch: 18 May)

Date Brightness Start Highest point End Pass type
(mag) Time Alt. Az. Time Alt. Az. Time Alt. Az.
19 May 3.9 03:57:17 12° ENE 03:57:17 12° ENE 03:57:40 10° ENE visible
19 May 2.2 05:32:38 17° NW 05:35:12 31° N 05:38:55 10° ENE visible
20 May 2.1 05:22:50 22° NW 05:24:38 31° N 05:28:21 10° ENE visible
21 May 2.0 05:12:59 27° NNW 05:14:04 31° N 05:17:45 10° ENE visible
22 May 2.0 05:03:07 29° NNW 05:03:29 29° N 05:07:07 10° NE visible
23 May 2.3 04:53:15 27° N 04:53:15 27° N 04:56:28 10° NE visible
24 May 2.7 04:43:22 22° NNE 04:43:22 22° NNE 04:45:45 10° NE visible
24 May 3.2 06:21:34 10° NW 06:22:54 11° NNW 06:24:15 10° N visible
25 May 3.1 04:33:31 17° NNE 04:33:31 17° NNE 04:35:01 10° NE visible
26 May 3.6 04:23:40 12° NNE 04:23:40 12° NNE 04:24:10 10° NNE visible
